This is the latest recevied weather packets stored in our database for station/object N8WEL. If no packets are shown the sender has not sent any weather packets the latest 10 day(s).
| Time | Temp. | Humidity | Pressure | Rain* | Wind** | Luminosity | Snow |
|---|---|---|---|---|---|---|---|
| 1778102392 | 13.33° C | 45% | 1012.1 hPa | 0 mm | - | - | - |
| 1778102092 | 13.33° C | 45% | 1012 hPa | 0 mm | - | - | - |
| 1778101792 | 13.33° C | 45% | 1012.1 hPa | 0 mm | - | - | - |
| 1778101492 | 13.33° C | 46% | 1012.1 hPa | 0 mm | - | - | - |
| 1778100762 | 12.78° C | 44% | 1012 hPa | 0 mm | - | - | - |
| 1778100462 | 13.33° C | 48% | 1012 hPa | 0 mm | - | - | - |
| 1778100162 | 13.33° C | 49% | 1012 hPa | 0 mm | - | - | - |
| 1778099862 | 13.33° C | 51% | 1012 hPa | 0 mm | - | - | - |
| 1778099562 | 13.33° C | 51% | 1011.9 hPa | 0 mm | - | - | - |
| 1778099262 | 13.33° C | 53% | 1011.9 hPa | 0 mm | - | - | - |
| 1778098962 | 13.33° C | 52% | 1011.9 hPa | 0 mm | - | - | - |
| 1778098662 | 13.33° C | 51% | 1011.9 hPa | 0 mm | - | - | - |
| 1778098239 | 13.33° C | 52% | 1011.9 hPa | 0 mm | - | - | - |
| 1778097951 | 13.33° C | 51% | 1011.8 hPa | 0 mm | - | - | - |
| 1778097717 | 13.33° C | 51% | 1011.7 hPa | 0 mm | - | - | - |
| 1778096937 | 13.89° C | 51% | 1011.6 hPa | 0 mm | - | - | - |
| 1778096571 | 13.89° C | 50% | 1011.7 hPa | 0 mm | - | - | - |
| 1778096138 | 13.33° C | 52% | 1011.6 hPa | 0 mm | - | - | - |
| 1778095841 | 13.33° C | 51% | 1011.8 hPa | 0 mm | - | - | - |
| 1778095538 | 13.33° C | 52% | 1011.7 hPa | 0 mm | - | - | - |
| 1778095238 | 13.33° C | 52% | 1011.8 hPa | 0 mm | - | - | - |
| 1778094916 | 13.33° C | 50% | 1011.7 hPa | 0 mm | - | - | - |
| 1778094617 | 13.33° C | 50% | 1011.7 hPa | 0 mm | - | - | - |
| 1778094316 | 13.89° C | 49% | 1011.8 hPa | 0 mm | - | - | - |
| 1778094016 | 13.89° C | 47% | 1011.7 hPa | 0 mm | - | - | - |
* Rain latest hour (hover to see other rain measurements)
** Current wind speed in m/s (hover to see current wind gust speed)